Powrót do katalogu

STARLINK-30777

AktywnyŁącznośćVLEO
NORAD 58233·PAYLOAD·🇺🇸 United States

Wystrzelony Nov 8, 2023 z Cape Canaveral Space Force Station

Loading…

Następne Przeloty (najbliższe 24 godziny)

TLE

ŚwieżeSource: CelesTrak SupGP

Epoka: Sep 14, 2026, 22:26 UTC

1 58233C 23171D   26257.93520833  .00015696  00000+0  56857-3 0  2577
2 58233  43.0003 296.8192 0001483 264.8353  77.9566 15.27566555    15

Śledź STARLINK-30777 w czasie rzeczywistym z AllMySat

Download on the App Store